FW1404 Weather Reports


time (UTC)temp
F
wind
direction
speed
knots
gust
knots
rain 1hr
in
rain 24hr
in
rain mn
in
humidity
%
barometer
mb
20260507223345 46 29 2.6 4.3 0.02 0.39 0.01 90 1016.8
20260507222845 46 29 2.6 4.3 0.02 0.39 0.01 90 1016.8
20260507222347 46 27 1.7 3.5 0.02 0.39 0.01 90 1016.7
20260507221847 46 26 1.7 4.3 0.02 0.39 0.01 90 1016.7
20260507221629 46 32 2.6 4.3 0.02 0.39 0.01 90 1016.7
20260507220847 46 27 1.7 4.3 0.02 0.39 0.01 90 1016.7
20260507220347 46 30 2.6 2.6 0.02 0.39 0.00 90 1016.7
20260507215847 46 32 0.9 3.5 0.01 0.39 0.39 90 1016.7
20260507215347 46 29 2.6 4.3 0.01 0.39 0.39 90 1016.6
20260507214846 46 22 2.6 4.3 0.01 0.39 0.39 90 1016.6
20260507214346 46 23 1.7 3.5 0.01 0.39 0.39 90 1016.6
20260507213847 46 23 1.7 3.5 0.01 0.39 0.39 90 1016.6
20260507213346 46 23 0.9 4.3 0.00 0.39 0.39 90 1016.5
20260507212846 46 23 3.5 4.3 0.00 0.39 0.39 90 1016.5
20260507212629 46 44 1.7 3.5 0.00 0.39 0.39 90 1016.5
20260507212127 46 8 2.6 3.5 0.00 0.39 0.39 90 1016.4
20260507211345 46 26 2.6 4.3 0.00 0.39 0.39 90 1016.4
20260507210847 46 26 1.7 4.3 0.00 0.39 0.39 90 1016.4
20260507210347 46 37 1.7 3.5 0.00 0.39 0.39 90 1016.3
20260507205847 46 39 2.6 4.3 0.00 0.39 0.39 90 1016.2
20260507205346 46 60 3.5 4.3 0.00 0.39 0.39 90 1016.2
20260507204844 46 50 0.9 5.2 0.00 0.39 0.39 90 1016.2
20260507204633 46 50 3.5 5.2 0.00 0.39 0.39 90 1016.1
20260507204126 46 16 2.6 5.2 0.00 0.39 0.39 90 1016.0
20260507203629 46 33 3.5 5.2 0.00 0.39 0.39 90 1016.1
20260507202843 46 53 5.2 6.1 0.00 0.39 0.39 90 1015.9
20260507202630 46 27 3.5 6.1 0.00 0.39 0.39 90 1015.9
20260507202129 46 30 4.3 5.2 0.00 0.39 0.39 90 1015.8
20260507201345 46 37 3.5 5.2 0.00 0.39 0.39 90 1015.7
20260507200845 46 8 4.3 5.2 0.00 0.39 0.39 90 1015.7
20260507200622 46 51 2.6 4.3 0.00 0.39 0.39 90 1015.7
20260507195845 46 25 2.6 4.3 0.00 0.39 0.39 90 1015.5
20260507195342 46 25 3.5 5.2 0.00 0.39 0.39 90 1015.6
20260507194844 46 43 1.7 5.2 0.00 0.39 0.39 90 1015.5
20260507194342 46 32 4.3 5.2 0.00 0.39 0.39 90 1015.5
20260507193844 46 47 2.6 4.3 0.00 0.39 0.39 90 1015.5
20260507193342 46 50 0.9 5.2 0.00 0.39 0.39 90 1015.5
20260507192844 46 32 3.5 5.2 0.00 0.39 0.39 90 1015.4
20260507192715 46 51 3.5 5.2 0.00 0.39 0.39 90 1015.4
20260507192407 46 41 2.6 5.2 0.00 0.39 0.39 90 1015.5
20260507191343 46 23 4.3 5.2 0.00 0.39 0.39 89 1015.4
20260507191219 46 44 3.5 6.1 0.00 0.39 0.39 89 1015.3
20260507191212 46 50 2.6 6.1 0.00 0.39 0.39 89 1015.4
20260507190129 46 50 3.5 6.1 0.00 0.39 0.39 89 1015.2
20260507185342 46 41 3.5 6.1 0.00 0.39 0.39 89 1015.1
20260507184843 46 34 3.5 6.1 0.00 0.39 0.39 89 1015.2
20260507184343 46 39 3.5 6.1 0.00 0.39 0.39 89 1015.2
20260507183843 46 37 3.5 7.8 0.00 0.39 0.39 89 1015.1
20260507183343 46 33 4.3 7.8 0.00 0.39 0.39 89 1015.0
20260507182845 46 25 6.1 7.8 0.00 0.39 0.39 89 1014.9
20260507182342 46 18 4.3 8.7 0.00 0.39 0.39 89 1014.9
20260507181841 46 50 3.5 9.6 0.00 0.39 0.39 89 1014.8
20260507181341 46 32 6.1 9.6 0.00 0.39 0.39 89 1014.7
20260507180843 46 43 5.2 8.7 0.00 0.39 0.39 89 1014.7
20260507180343 46 30 2.6 8.7 0.00 0.39 0.39 89 1014.7
20260507175842 47 9 5.2 7.8 0.00 0.39 0.39 89 1014.7
20260507175336 47 39 5.2 7.8 0.00 0.39 0.39 89 1014.5
20260507174832 47 41 4.3 6.1 0.00 0.39 0.39 89 1014.5
20260507174333 47 27 2.6 8.7 0.00 0.39 0.39 89 1014.4
20260507173832 47 20 4.3 8.7 0.00 0.39 0.39 89 1014.4
20260507173331 47 6 3.5 7.8 0.00 0.39 0.39 89 1014.3
20260507173054 47 29 5.2 9.6 0.00 0.39 0.39 89 1014.4
20260507172307 47 3 5.2 9.6 0.00 0.39 0.39 89 1014.2
20260507172049 47 32 3.5 7.8 0.00 0.39 0.39 89 1014.2
20260507171302 47 356 3.5 6.1 0.00 0.39 0.39 89 1014.2
20260507170804 47 33 2.6 6.1 0.00 0.39 0.39 89 1014.0
20260507170303 47 20 4.3 10.4 0.00 0.39 0.39 89 1014.1
20260507165802 47 20 5.2 10.4 0.00 0.39 0.39 89 1013.9
20260507165306 47 9 4.3 8.7 0.01 0.39 0.39 89 1014.0
20260507164803 47 37 5.2 7.8 0.01 0.39 0.39 89 1013.9
20260507164304 47 5 7.0 7.8 0.01 0.39 0.39 89 1013.8
20260507163803 47 34 2.6 10.4 0.01 0.39 0.39 89 1013.8
20260507163304 48 9 6.1 10.4 0.01 0.39 0.39 89 1013.7
20260507162804 48 51 5.2 8.7 0.01 0.39 0.39 89 1013.8
20260507162307 48 30 1.7 5.2 0.01 0.39 0.39 89 1013.8
20260507161803 48 30 3.5 6.1 0.02 0.39 0.39 89 1013.8
20260507161303 48 54 2.6 6.1 0.02 0.39 0.39 89 1013.8
20260507160804 48 39 2.6 6.1 0.02 0.39 0.39 89 1013.8
20260507160304 48 44 5.2 6.1 0.03 0.39 0.39 89 1013.7
20260507155803 48 30 3.5 7.8 0.04 0.35 0.39 89 1013.8
20260507155306 48 29 5.2 7.8 0.03 0.35 0.38 89 1013.7
20260507154803 48 16 4.3 7.8 0.03 0.35 0.38 89 1013.7
20260507154354 48 33 4.3 9.6 0.04 0.35 0.38 89 1013.6
20260507154341 48 27 3.5 9.6 0.04 0.35 0.38 89 1013.6
20260507153304 48 32 5.2 7.8 0.04 0.35 0.38 89 1013.5
20260507152902 48 50 2.6 7.8 0.04 0.35 0.38 89 1013.6
20260507152840 48 57 5.2 6.1 0.04 0.35 0.38 89 1013.6
20260507151806 48 34 4.3 9.6 0.03 0.35 0.37 88 1013.6
20260507151304 48 32 7.0 9.6 0.03 0.35 0.37 88 1013.5
20260507150805 48 26 6.1 7.8 0.02 0.35 0.36 88 1013.5
20260507150304 48 12 3.5 6.1 0.02 0.35 0.35 88 1013.5
20260507145804 48 19 2.6 4.3 0.01 0.34 0.35 88 1013.4
20260507145306 48 19 2.6 4.3 0.01 0.34 0.35 88 1013.4
20260507144803 48 33 2.6 5.2 0.01 0.34 0.35 88 1013.5
20260507144304 48 23 3.5 9.6 0.00 0.34 0.34 88 1013.5
20260507143803 48 29 3.5 9.6 0.00 0.34 0.34 88 1013.5
20260507143303 48 46 5.2 6.1 0.00 0.34 0.34 88 1013.5
20260507142803 48 49 3.5 4.3 0.00 0.34 0.34 88 1013.5
20260507142306 48 80 0.9 4.3 0.00 0.34 0.34 88 1013.5
20260507142051 48 75 2.6 4.3 0.00 0.34 0.34 88 1013.3
20260507141551 48 46 1.7 4.3 0.00 0.34 0.34 88 1013.3
20260507140804 48 84 3.5 5.2 0.00 0.34 0.34 88 1013.4
20260507140303 48 96 3.5 5.2 0.00 0.34 0.34 88 1013.4
20260507135804 48 65 1.7 5.2 0.00 0.34 0.34 88 1013.3
20260507135713 48 54 2.6 6.1 0.00 0.34 0.34 88 1013.2
20260507135409 48 53 4.3 7.8 0.00 0.34 0.34 88 1013.1
20260507135350 48 51 2.6 4.3 0.00 0.34 0.34 88 1013.2
20260507133802 48 64 4.3 7.8 0.00 0.34 0.34 88 1013.1
20260507133553 48 54 5.2 7.8 0.00 0.34 0.34 88 1013.0
20260507132804 48 64 1.7 6.1 0.00 0.34 0.34 88 1013.1
20260507132601 48 81 3.5 6.1 0.00 0.34 0.34 88 1013.0
20260507131805 48 65 3.5 6.1 0.00 0.34 0.34 88 1013.1
20260507131302 48 27 4.3 6.1 0.00 0.34 0.34 88 1013.1
20260507130805 48 30 2.6 6.1 0.00 0.34 0.34 88 1013.0
20260507130302 48 49 3.5 7.8 0.00 0.34 0.34 88 1012.9
20260507125802 48 30 3.5 9.6 0.00 0.34 0.34 88 1012.8
20260507125306 48 57 7.0 9.6 0.00 0.34 0.34 88 1012.8
20260507124803 48 32 5.2 9.6 0.00 0.34 0.34 89 1012.7
20260507124304 48 32 3.5 6.1 0.00 0.34 0.34 89 1012.8
20260507123804 48 44 4.3 6.1 0.00 0.34 0.34 89 1012.6
20260507123302 48 33 4.3 6.1 0.00 0.34 0.34 89 1012.5
20260507122804 48 49 4.3 7.8 0.00 0.34 0.34 89 1012.5
20260507122307 48 29 5.2 9.6 0.00 0.34 0.34 89 1012.6
20260507121803 48 68 5.2 9.6 0.00 0.34 0.34 89 1012.5
20260507121302 49 67 6.1 8.7 0.00 0.34 0.34 89 1012.4
20260507120803 49 61 3.5 6.1 0.00 0.34 0.34 89 1012.3
20260507120619 49 57 4.3 8.7 0.00 0.34 0.34 90 1012.3
20260507120323 48 47 3.5 7.8 0.00 0.34 0.34 89 1012.3
20260507115255 48 30 3.5 8.7 0.00 0.34 0.34 90 1012.3
20260507114740 48 18 3.5 7.8 0.00 0.34 0.34 90 1012.3
20260507114236 48 44 3.5 10.4 0.01 0.34 0.34 89 1012.2
20260507113738 48 27 5.2 10.4 0.01 0.34 0.34 89 1012.2
20260507113234 48 67 4.3 9.6 0.01 0.34 0.34 89 1012.3
20260507112733 48 44 5.2 6.1 0.02 0.34 0.34 90 1012.3
20260507112233 48 78 3.5 6.1 0.02 0.34 0.34 90 1012.2
20260507111735 48 30 4.3 6.1 0.02 0.34 0.34 90 1012.2
20260507111233 48 58 3.5 6.1 0.02 0.34 0.34 90 1012.2
20260507110735 48 46 1.7 7.8 0.02 0.34 0.34 90 1012.2
20260507110231 48 36 3.5 7.8 0.02 0.34 0.34 90 1012.0
20260507105733 48 34 5.2 7.8 0.02 0.31 0.34 90 1012.1
20260507105233 48 37 3.5 8.7 0.02 0.31 0.34 90 1012.0
20260507105020 47 46 5.2 8.7 0.02 0.31 0.33 90 1012.0
20260507104233 47 29 1.7 7.8 0.02 0.31 0.33 90 1011.9
20260507103732 47 39 5.2 7.8 0.02 0.31 0.33 90 1012.1
20260507103516 47 44 5.2 7.8 0.02 0.31 0.33 90 1012.0
20260507102733 47 34 2.6 6.1 0.01 0.31 0.32 90 1012.0
20260507102232 47 5 3.5 5.2 0.01 0.31 0.32 90 1012.0
20260507101734 47 2 2.6 5.2 0.01 0.31 0.32 90 1012.0
20260507101232 47 32 3.5 5.2 0.01 0.31 0.32 90 1012.0
20260507100733 47 12 3.5 5.2 0.00 0.31 0.31 90 1011.9
20260507100232 47 26 2.6 3.5 0.00 0.31 0.31 90 1011.8
20260507095734 47 22 1.7 4.3 0.00 0.31 0.31 90 1011.9
20260507095231 47 32 2.6 4.3 0.00 0.31 0.31 90 1011.9
20260507094733 47 51 1.7 4.3 0.00 0.31 0.31 90 1011.8
20260507094232 47 47 1.7 3.5 0.00 0.31 0.31 90 1011.7
20260507093732 47 12 2.6 6.1 0.00 0.31 0.31 90 1011.7
20260507093231 47 53 3.5 6.1 0.00 0.31 0.31 90 1011.5
20260507092733 47 85 2.6 5.2 0.00 0.31 0.31 90 1011.5
20260507092256 47 43 4.3 6.1 0.00 0.31 0.31 90 1011.4
20260507092245 47 87 3.5 6.1 0.00 0.31 0.31 90 1011.4
20260507091519 47 36 3.5 6.1 0.00 0.31 0.31 90 1011.3
20260507090732 47 57 4.3 6.1 0.00 0.31 0.31 90 1011.3
20260507090510 47 22 4.3 6.1 0.00 0.31 0.31 90 1011.1
20260507085732 47 37 3.5 7.8 0.00 0.31 0.29 90 1011.1
20260507085231 47 37 4.3 7.8 0.00 0.31 0.29 90 1011.1
20260507084731 47 33 1.7 6.1 0.01 0.31 0.29 90 1011.1
20260507084230 47 58 4.3 5.2 0.01 0.31 0.29 90 1010.9
20260507083732 46 34 2.6 5.2 0.01 0.31 0.29 90 1010.8
20260507083513 46 12 3.5 5.2 0.01 0.31 0.29 90 1010.9
20260507082731 46 63 3.5 5.2 0.01 0.31 0.29 90 1010.9
20260507082230 46 56 1.7 6.1 0.01 0.31 0.29 90 1010.8
20260507081732 47 63 3.5 6.1 0.02 0.31 0.29 90 1010.8
20260507081230 46 26 4.3 6.1 0.02 0.31 0.29 90 1010.7
20260507080731 46 67 3.5 5.2 0.02 0.31 0.29 90 1010.7
20260507080229 46 71 2.6 4.3 0.02 0.31 0.31 90 1010.7
20260507075729 46 65 2.6 4.3 0.02 0.29 0.31 90 1010.5
20260507075227 46 63 3.5 5.2 0.02 0.29 0.31 90 1010.4
20260507074730 46 60 3.5 5.2 0.02 0.29 0.31 90 1010.3
20260507074524 46 56 2.6 5.2 0.02 0.29 0.31 90 1010.4
20260507074113 46 65 2.6 5.2 0.02 0.29 0.31 90 1010.3
20260507073803 46 37 2.6 5.2 0.02 0.29 0.31 90 1010.3
20260507072741 46 33 3.5 6.1 0.02 0.29 0.31 89 1010.2
20260507072229 46 36 2.6 8.7 0.02 0.29 0.30 90 1010.1
20260507071728 46 53 4.3 8.7 0.02 0.29 0.30 90 1010.0
20260507071229 46 50 2.6 5.2 0.02 0.30 0.30 90 1010.0
20260507070728 46 41 3.5 7.8 0.01 0.30 0.29 90 1009.9
20260507070514 46 41 5.2 7.8 0.01 0.30 0.29 90 1009.9
20260507065730 46 6 4.3 6.1 0.01 0.29 0.29 90 1009.8
20260507065228 46 25 4.3 6.1 0.01 0.29 0.29 90 1009.7
20260507064729 46 26 2.6 6.1 0.01 0.29 0.29 90 1009.5
20260507064230 46 60 4.3 7.8 0.01 0.29 0.29 90 1009.6
20260507063729 46 22 2.6 7.8 0.00 0.29 0.28 90 1009.4
20260507063228 46 46 4.3 6.1 0.00 0.29 0.28 90 1009.4
20260507062728 46 50 3.5 7.8 0.00 0.29 0.28 90 1009.5
20260507062512 46 10 5.2 9.6 0.00 0.29 0.28 90 1009.5
20260507062008 46 354 4.3 9.6 0.00 0.29 0.28 89 1009.5
20260507061227 46 19 4.3 5.2 0.00 0.29 0.28 89 1009.4
20260507060727 46 40 1.7 5.2 0.00 0.29 0.28 89 1009.3
20260507060225 47 34 3.5 5.2 0.00 0.29 0.28 89 1009.3
20260507055727 47 19 2.6 5.2 0.00 0.29 0.28 89 1009.2
20260507055226 47 25 3.5 6.1 0.00 0.29 0.28 89 1009.2
20260507054726 47 348 4.3 6.1 0.00 0.29 0.28 89 1009.2
20260507054225 47 18 4.3 6.1 0.00 0.29 0.28 90 1009.1
20260507053728 47 15 3.5 6.1 0.00 0.29 0.28 89 1008.9
20260507053518 47 12 3.5 7.8 0.00 0.29 0.28 89 1008.9
20260507052727 47 29 3.5 7.8 0.00 0.29 0.28 89 1008.9
20260507052225 47 39 3.5 6.1 0.00 0.29 0.28 89 1008.8
20260507051726 47 16 2.6 8.7 0.00 0.29 0.28 89 1008.9
20260507051227 47 12 4.3 8.7 0.00 0.29 0.28 89 1008.8
20260507050726 47 34 3.5 8.7 0.00 0.29 0.28 89 1008.7
20260507050223 47 58 3.5 7.8 0.00 0.29 0.28 89 1008.6
20260507045725 47 34 3.5 7.8 0.00 0.29 0.28 89 1008.5
20260507045225 47 46 3.5 5.2 0.00 0.29 0.28 89 1008.5
20260507045011 47 26 3.5 5.2 0.00 0.29 0.28 89 1008.5
20260507044225 47 63 3.5 4.3 0.00 0.29 0.28 89 1008.5
20260507043727 47 47 3.5 4.3 0.00 0.29 0.28 89 1008.4
20260507043222 47 68 3.5 6.1 0.00 0.29 0.28 89 1008.3
20260507042723 47 39 4.3 7.8 0.01 0.29 0.28 89 1008.3
20260507042223 47 64 5.2 7.8 0.01 0.29 0.28 89 1008.2
20260507041725 47 74 4.3 7.8 0.02 0.29 0.28 89 1008.3
20260507041224 47 56 2.6 8.7 0.02 0.29 0.28 89 1008.2
20260507040725 47 27 3.5 8.7 0.04 0.29 0.28 89 1008.0
20260507040223 47 47 3.5 8.7 0.06 0.29 0.28 89 1007.8
20260507035724 47 29 5.2 8.7 0.08 0.23 0.28 89 1007.8
20260507035221 47 34 3.5 7.8 0.09 0.23 0.28 89 1007.8
20260507034724 47 34 5.2 7.8 0.09 0.23 0.28 89 1007.8
20260507034223 47 34 3.5 6.1 0.11 0.23 0.28 88 1007.8
20260507033724 47 40 4.3 6.1 0.13 0.23 0.28 88 1007.8
20260507033223 47 20 3.5 5.2 0.14 0.23 0.28 88 1007.8
20260507033008 47 359 2.6 7.8 0.15 0.23 0.28 88 1007.9
20260507032515 47 6 2.6 7.8 0.16 0.23 0.28 88 1007.8
20260507032003 47 34 4.3 7.8 0.17 0.23 0.27 88 1007.7
20260507031222 47 47 4.3 6.1 0.17 0.23 0.26 88 1007.8
20260507030725 47 358 2.6 7.8 0.17 0.23 0.24 88 1007.8
20260507030510 47 9 3.5 9.6 0.17 0.23 0.22 88 1007.6
20260507025723 47 32 4.3 9.6 0.15 0.07 0.20 88 1007.5
20260507025459 47 41 5.2 9.6 0.15 0.07 0.19 88 1007.6
20260507025008 47 26 3.5 6.1 0.15 0.07 0.18 88 1007.8
20260507024222 47 27 4.3 6.1 0.14 0.07 0.17 87 1007.9
20260507023724 47 3 4.3 7.8 0.13 0.07 0.16 87 1008.0
20260507023222 47 9 4.3 7.8 0.13 0.07 0.14 87 1007.9
20260507022723 47 3 1.7 6.1 0.11 0.07 0.13 87 1007.9
20260507022501 47 9 5.2 8.7 0.11 0.07 0.12 87 1007.8
20260507021758 48 23 3.5 7.8 0.09 0.07 0.09 87 1007.7
20260507021748 47 10 6.1 8.7 0.09 0.07 0.10 87 1007.8
20260507021015 48 13 1.7 9.6 0.08 0.07 0.08 87 1007.7
20260507020508 48 39 6.1 9.6 0.06 0.07 0.06 87 1007.7
20260507015722 48 6 3.5 6.1 0.06 0.02 0.06 87 1007.7
20260507015221 48 25 4.3 6.1 0.05 0.02 0.05 87 1007.6
20260507014721 48 8 5.2 6.1 0.04 0.04 0.04 86 1007.5
20260507014220 48 10 3.5 6.1 0.03 0.06 0.03 86 1007.5
20260507013721 48 36 4.3 7.8 0.02 0.07 0.02 86 1007.4
20260507013221 48 40 6.1 7.8 0.02 0.09 0.02 86 1007.4
20260507012721 48 8 3.5 8.7 0.02 0.11 0.01 86 1007.5
20260507012219 49 10 3.5 8.7 0.01 0.13 0.01 85 1007.3
20260507011721 49 25 5.2 8.7 0.01 0.13 0.01 85 1007.3
20260507011219 49 32 5.2 10.4 0.00 0.13 0.00 85 1007.3
20260507010720 49 18 3.5 10.4 0.00 0.13 0.00 85 1007.2
20260507010219 49 358 7.0 9.6 0.00 0.13 0.00 85 1007.2
20260507005721 49 2 5.2 11.3 0.00 0.14 0.00 85 1007.1
20260507005219 49 18 7.0 11.3 0.00 0.15 0.00 85 1007.1
20260507005009 49 15 7.0 10.4 0.00 0.15 0.00 85 1007.0
20260507004219 49 30 4.3 9.6 0.00 0.15 0.00 84 1007.1
20260507003720 49 37 2.6 7.8 0.00 0.15 0.00 84 1006.8
20260507003510 50 30 6.1 8.7 0.00 0.17 0.00 84 1006.8
20260507002721 50 33 6.1 8.7 0.00 0.20 0.00 84 1006.9
20260507002501 50 32 4.3 7.8 0.00 0.22 0.00 84 1006.9
20260507001720 50 19 6.1 6.1 0.00 0.24 0.00 84 1007.0
20260507001219 50 25 4.3 6.1 0.00 0.24 0.00 84 1007.0
20260507000802 50 64 3.5 5.2 0.00 0.26 0.00 84 1007.0
20260507000745 50 46 2.6 4.3 0.00 0.25 0.00 84 1007.0
20260506235719 50 75 3.5 5.2 0.00 0.26 0.00 84 1007.0
20260506235218 50 73 1.7 5.2 0.00 0.26 0.00 84 1006.8
20260506234721 50 64 3.5 6.1 0.00 0.26 0.00 84 1006.6
20260506234217 50 54 4.3 7.8 0.00 0.27 0.00 84 1006.7
20260506233719 50 50 4.3 7.8 0.00 0.27 0.00 84 1006.6
20260506233217 50 19 5.2 7.8 0.00 0.28 0.00 84 1006.7
20260506232719 50 356 4.3 7.8 0.00 0.28 0.00 84 1006.8
20260506232509 50 19 3.5 8.7 0.00 0.28 0.00 83 1006.9
20260506232000 51 3 5.2 8.7 0.00 0.28 0.00 84 1006.9
20260506231216 51 19 4.3 8.7 0.00 0.28 0.00 83 1006.9
20260506230719 51 347 4.3 8.7 0.00 0.28 0.00 83 1006.9
20260506230453 51 16 3.5 6.1 0.00 0.28 0.00 83 1006.9
20260506225718 51 1 5.2 7.8 0.00 0.28 0.00 83 1006.7
20260506225217 51 37 3.5 7.8 0.00 0.28 0.00 83 1006.7
20260506225000 51 8 3.5 6.1 0.00 0.28 0.00 83 1006.7
20260506224451 51 6 5.2 6.1 0.00 0.28 0.00 83 1006.6
20260506223717 51 22 2.6 6.1 0.00 0.29 0.00 83 1006.5